Location: Bramevaque
(42.9773°N, 0.5757°E)
Time: 16:30:54
(UTC+00:00)

Okean-O - Pass Details

Date: 15 May 2026
Orbit: 627 x 629 km, 97.9° (Epoch: 10 June)

Event Time Altitude Azimuth Distance (km) Brightness Sun altitude
Exits shadow 20:14:58 14° 134° (SE) 1,770 4.2 -10.2°
Maximum altitude 20:18:21 38° 70° (ENE) 972 3.3 -10.7°
Drops below altitude 10° 20:22:24 10° 3° (N) 2,015 5.7 -11.2°
Sets 20:24:43 0° 356° (N) 2,926 6.7 -11.6°
